Walnut Ridge, AR

12:07 PM CDT on April 27, 2017 (GMT -0500)
Walnut Ridge Regional

Weather History for KARG - February, 2013

Change the Weather History Date:

Thursday, February 21, 2013

  Actual Average Record
Temperature  
Mean Temperature 30 °F -  
Max Temperature 33 °F 49 °F 69 °F (2007)
Min Temperature 28 °F 34 °F 23 °F (2006)
Degree Days  
Heating Degree Days 34    
Moisture  
Dew Point 28 °F    
Average Humidity 89    
Maximum Humidity 100    
Minimum Humidity 75    
Precipitation  
Precipitation 1.23 in - - ()
Sea Level Pressure  
Sea Level Pressure 29.99 in    
Wind  
Wind Speed 12 mph (ENE)    
Max Wind Speed 21 mph    
Max Gust Speed 25 mph    
Visibility 6 miles    
Events Thunderstorm    
Averages and records for this station are not official NWS values.
T = Trace of Precipitation, MM = Missing Value Source: NWS Daily Summary

Daily Weather History Graph

Daily Weather History Graph

Search for Another Location

Airport or City:

Trip Planner

Search our weather history database for the weather conditions in past years. The results will help you decide how hot, cold, wet, or windy it might be!

Date:

Astronomy

Feb. 21, 2013 Rise Set
Actual Time 6:43 AM CST 5:51 PM CST
Civil Twilight 6:17 AM CST 6:17 PM CST
Nautical Twilight 5:47 AM CST 6:47 PM CST
Astronomical Twilight 5:18 AM CST 7:16 PM CST
Moon 2:10 PM CST (2/21) 3:43 AM CST (2/21)
Length of Visible Light 11h 59m
Length of Day
11h 07m
Waxing Gibbous, 84% of the Moon is Illuminated
Feb 21
Waxing Gibbous
Feb 25
Full
Mar 4
Last Quarter
Mar 11
New
Mar 19
First Quarter

Hourly Weather History & Observations

Time (CST) Temp. Windchill Dew Point Humidity Pressure Visibility Wind Dir Wind Speed Gust Speed Precip Events Conditions
12:15 AM 30.2 °F 19.8 °F 23.0 °F 75% 30.23 in 10.0 mi NE 13.8 mph - N/A   Overcast
12:35 AM 30.2 °F 19.3 °F 23.0 °F 75% 30.23 in 10.0 mi NE 15.0 mph - N/A   Mostly Cloudy
12:55 AM 30.2 °F 19.8 °F 23.0 °F 75% 30.23 in 10.0 mi NE 13.8 mph - N/A   Overcast
1:15 AM 30.2 °F 19.3 °F 23.0 °F 75% 30.23 in 10.0 mi NE 15.0 mph - N/A   Overcast
1:35 AM 30.2 °F 18.9 °F 24.8 °F 80% 30.22 in 10.0 mi NE 16.1 mph - N/A   Mostly Cloudy
1:55 AM 30.2 °F 18.9 °F 24.8 °F 80% 30.21 in 10.0 mi NE 16.1 mph - N/A   Mostly Cloudy
2:15 AM 30.2 °F 19.3 °F 23.0 °F 75% 30.20 in 10.0 mi NE 15.0 mph - N/A   Overcast
2:35 AM 30.2 °F 20.2 °F 23.0 °F 75% 30.20 in 10.0 mi NE 12.7 mph - N/A   Mostly Cloudy
2:55 AM 30.2 °F 19.3 °F 23.0 °F 75% 30.22 in 10.0 mi NE 15.0 mph - N/A   Scattered Clouds
3:15 AM 30.2 °F 18.9 °F 23.0 °F 75% 30.20 in 10.0 mi ENE 16.1 mph - N/A   Mostly Cloudy
3:35 AM 30.2 °F 18.1 °F 24.8 °F 80% 30.18 in 10.0 mi ENE 18.4 mph - N/A   Mostly Cloudy
3:55 AM 30.2 °F 17.8 °F 24.8 °F 80% 30.17 in 10.0 mi ENE 19.6 mph - N/A   Overcast
4:15 AM 28.4 °F 16.2 °F 24.8 °F 86% 30.16 in 10.0 mi NE 17.3 mph - N/A   Scattered Clouds
4:35 AM 28.4 °F 16.6 °F 26.6 °F 93% 30.15 in 10.0 mi NE 16.1 mph - N/A   Mostly Cloudy
4:55 AM 28.4 °F 15.8 °F 26.6 °F 93% 30.14 in 10.0 mi NE 18.4 mph - N/A   Scattered Clouds
5:15 AM 28.4 °F 15.8 °F 24.8 °F 86% 30.13 in 10.0 mi NE 18.4 mph 24.2 mph N/A   Mostly Cloudy
5:55 AM 28.4 °F 18.0 °F 24.8 °F 86% 30.15 in 10.0 mi ENE 12.7 mph - N/A   Overcast
6:15 AM 28.4 °F 17.0 °F 24.8 °F 86% 30.13 in 9.0 mi ENE 15.0 mph - N/A   Overcast
6:35 AM 28.4 °F 17.5 °F 24.8 °F 86% 30.13 in 10.0 mi ENE 13.8 mph - N/A   Overcast
6:55 AM 28.4 °F 17.5 °F 24.8 °F 86% 30.13 in 10.0 mi ENE 13.8 mph - N/A   Overcast
7:15 AM 28.4 °F 16.6 °F 26.6 °F 93% 30.11 in 8.0 mi ENE 16.1 mph - N/A   Overcast
7:35 AM 28.4 °F 16.6 °F 24.8 °F 86% 30.11 in 10.0 mi ENE 16.1 mph - N/A   Overcast
7:55 AM 30.2 °F 17.4 °F 26.6 °F 86% 30.07 in 10.0 mi East 20.7 mph - N/A   Overcast
8:15 AM 30.2 °F 18.1 °F 26.6 °F 86% 30.07 in 10.0 mi East 18.4 mph - N/A   Overcast
8:35 AM 30.2 °F 18.1 °F 24.8 °F 80% 30.06 in 10.0 mi East 18.4 mph - N/A   Overcast
8:55 AM 30.2 °F 18.5 °F 24.8 °F 80% 30.08 in 10.0 mi ENE 17.3 mph - N/A   Overcast
9:15 AM 30.2 °F 18.9 °F 24.8 °F 80% 30.06 in 10.0 mi ENE 16.1 mph - N/A   Overcast
9:35 AM 30.2 °F 17.8 °F 24.8 °F 80% 30.03 in 10.0 mi ENE 19.6 mph 24.2 mph N/A   Overcast
9:55 AM 30.2 °F 17.8 °F 26.6 °F 86% 30.03 in 10.0 mi ENE 19.6 mph 25.3 mph N/A   Overcast
10:15 AM 30.2 °F 18.1 °F 26.6 °F 86% 30.01 in 5.0 mi ENE 18.4 mph 24.2 mph 0.01 in   Overcast
10:35 AM 30.2 °F 19.3 °F 26.6 °F 86% 30.01 in 4.0 mi ENE 15.0 mph 20.7 mph 0.04 in   Overcast
10:55 AM 30.2 °F 17.8 °F 26.6 °F 86% 29.97 in 7.0 mi NE 19.6 mph - 0.06 in   Overcast
11:15 AM 30.2 °F 18.9 °F 28.4 °F 93% 29.98 in 4.0 mi NE 16.1 mph 21.9 mph 0.06 in   Overcast
11:35 AM 30.2 °F 17.8 °F 28.4 °F 93% 29.96 in 3.0 mi ENE 19.6 mph - 0.14 in Thunderstorm Thunderstorm
11:55 AM 30.2 °F 18.5 °F 28.4 °F 93% 29.95 in 3.0 mi NE 17.3 mph - 0.22 in Thunderstorm Thunderstorm
12:15 PM 30.2 °F 19.3 °F 28.4 °F 93% 29.93 in 2.5 mi ENE 15.0 mph - 0.09 in   Overcast
12:35 PM 30.2 °F 21.9 °F 28.4 °F 93% 29.96 in 1.8 mi ENE 9.2 mph - 0.23 in   Overcast
12:55 PM 30.2 °F 23.4 °F 28.4 °F 93% 29.95 in 2.5 mi ENE 6.9 mph - 0.35 in Thunderstorm Thunderstorm
1:15 PM 30.2 °F 21.9 °F 30.2 °F 100% 29.89 in 1.2 mi ENE 9.2 mph - 0.13 in Thunderstorm Thunderstorm
1:35 PM 30.2 °F 22.6 °F 28.4 °F 93% 29.85 in 1.5 mi ENE 8.1 mph - 0.24 in   Overcast
1:55 PM 30.2 °F - 30.2 °F 100% 29.85 in 2.5 mi Calm Calm - 0.29 in Thunderstorm Overcast
2:15 PM 32.0 °F - 30.2 °F 93% 29.86 in 1.5 mi Calm Calm - 0.13 in   Overcast
2:35 PM 32.0 °F - 30.2 °F 93% 29.88 in 1.8 mi Calm Calm - 0.18 in   Overcast
2:55 PM 32.0 °F - 30.2 °F 93% 29.87 in 3.0 mi Calm Calm - 0.21 in   Overcast
3:15 PM 32.0 °F - 30.2 °F 93% 29.85 in 3.0 mi Calm Calm - 0.01 in   Overcast
3:35 PM 32.0 °F - 30.2 °F 93% 29.85 in 2.5 mi Calm Calm - 0.04 in   Overcast
3:55 PM 32.0 °F - 30.2 °F 93% 29.83 in 3.0 mi Calm Calm - 0.05 in   Overcast
4:15 PM 32.0 °F - 30.2 °F 93% 29.83 in 2.0 mi Calm Calm - 0.03 in   Overcast
4:35 PM 32.0 °F - 30.2 °F 93% 29.81 in 3.0 mi Calm Calm - 0.03 in   Overcast
4:55 PM 32.0 °F - 30.2 °F 93% 29.82 in 2.5 mi Calm Calm - 0.03 in   Overcast
5:15 PM 32.0 °F - 30.2 °F 93% 29.83 in 2.5 mi Calm Calm - N/A   Overcast
5:35 PM 32.0 °F - 30.2 °F 93% 29.85 in 2.0 mi Calm Calm - 0.01 in   Overcast
5:55 PM 32.0 °F - 30.2 °F 93% 29.85 in 1.8 mi Calm Calm - 0.02 in   Overcast
6:15 PM 32.0 °F - 32.0 °F 100% 29.84 in 2.5 mi Calm Calm - N/A   Overcast
6:35 PM 32.0 °F - 32.0 °F 100% 29.84 in 5.0 mi Calm Calm - N/A   Overcast
6:55 PM 32.0 °F - 32.0 °F 100% 29.81 in 5.0 mi Calm Calm - N/A   Overcast
7:15 PM 32.0 °F - 32.0 °F 100% 29.82 in 4.0 mi Calm Calm - N/A   Overcast
7:35 PM 32.0 °F - 32.0 °F 100% 29.83 in 5.0 mi Calm Calm - N/A   Overcast
7:55 PM 33.8 °F - 32.0 °F 93% 29.83 in 5.0 mi Calm Calm - N/A   Overcast
8:15 PM 33.8 °F - 32.0 °F 93% 29.84 in 3.0 mi Calm Calm - N/A   Overcast
8:35 PM 33.8 °F - 32.0 °F 93% 29.86 in 1.8 mi Calm Calm - N/A   Overcast
8:55 PM 33.8 °F - 32.0 °F 93% 29.86 in 2.0 mi Calm Calm - N/A   Overcast
9:15 PM 32.0 °F - 32.0 °F 100% 29.87 in 1.8 mi Calm Calm - N/A   Overcast
9:35 PM 33.8 °F - 32.0 °F 93% 29.87 in 2.5 mi Calm Calm - N/A   Overcast
9:55 PM 33.8 °F - 32.0 °F 93% 29.87 in 3.0 mi Calm Calm - N/A   Overcast
10:15 PM 33.8 °F - 33.8 °F 100% 29.87 in 4.0 mi Calm Calm - N/A   Overcast
10:35 PM 33.8 °F - 32.0 °F 93% 29.86 in 3.0 mi Calm Calm - N/A   Mostly Cloudy
10:55 PM 32.0 °F - 32.0 °F 100% 29.86 in 2.5 mi Calm Calm - N/A   Mostly Cloudy
11:15 PM 32.0 °F - 32.0 °F 100% 29.86 in 2.0 mi Calm Calm - N/A   Overcast
11:35 PM 33.8 °F - 32.0 °F 93% 29.86 in 1.8 mi Calm Calm - N/A   Overcast
11:55 PM 33.8 °F - 32.0 °F 93% 29.86 in 0.2 mi Calm Calm - N/A   Overcast